Temperature
19 19 19 18 18 18 18 18 18 17 17 17 17 17 17 17 17 17 17 17 17 17 16 16 16 16 16 16 16 16 16 16 16 15 15 15 15 15 15 15 15 14 14
19 19 18 18 18 18 18 17 17 17 17 17 17 17 17 16 16 16 16 16 16 16 16 16 16 16 16 16 16 16 15 15 15 15 15 15 15 15 15 14 14 14 14
19 18 18 18 18 18 17 17 17 17 17 17 16 16 16 16 16 16 16 16 16 16 16 16 16 16 16 16 15 15 15 15 15 15 15 14 14 14 14 14 14 14 13
18 18 18 18 17 17 17 17 17 16 16 16 16 16 16 16 16 16 16 16 15 15 15 15 15 15 15 15 15 15 15 15 14 14 14 14 14 14 13 13 13 13 13
18 18 18 17 17 17 17 16 16 16 16 16 16 15 15 15 15 15 15 15 15 15 15 15 15 15 15 15 14 14 14 14 14 14 14 13 13 13 13 13 12 12 12
18 18 17 17 17 16 16 16 16 16 16 15 15 15 15 15 15 15 15 15 15 15 15 14 14 14 14 14 14 14 14 14 13 13 13 13 12 12 12 12 12 12 11
18 17 17 16 16 16 16 16 16 15 15 15 15 15 15 14 14 14 14 14 14 14 14 14 13 13 13 13 13 13 13 13 13 13 12 12 12 12 12 11 11 11 11
17 17 16 16 16 16 15 15 15 15 15 15 14 14 14 14 14 14 14 14 14 14 13 13 13 13 13 13 13 12 12 12 12 12 12 11 11 11 11 11 11 11 10
17 17 16 16 16 15 15 15 15 15 14 14 14 14 14 13 13 14 14 14 13 13 13 12 12 12 12 12 12 12 12 11 11 11 11 11 11 10 10 10 10 10 10
17 16 16 15 15 15 15 15 14 14 14 14 13 13 13 13 13 13 13 13 13 12 12 12 12 12 11 11 11 11 11 11 11 10 10 10 10 10 10 10 10 10 9
16 16 15 15 15 15 14 14 14 14 14 13 13 13 13 13 12 12 12 12 12 12 12 11 11 11 11 11 11 11 10 10 10 10 10 10 10 9 9 9 9 9 9
15 15 15 15 14 14 14 14 13 13 13 13 13 12 12 12 12 12 12 11 11 11 11 11 10 10 11 10 10 10 10 10 9 9 9 9 9 9 9 8 8 8 8
15 15 14 14 14 14 13 13 13 13 13 12 12 12 12 11 11 11 11 11 11 11 10 10 10 10 10 10 10 9 9 9 9 9 9 9 8 8 8 8 8 8 8
15 14 14 14 13 13 13 13 13 13 13 12 12 11 11 11 11 11 10 10 10 10 10 10 10 10 9 9 9 9 9 9 9 8 8 8 8 8 8 8 8 8 8
14 13 13 13 13 13 13 12 12 12 12 12 11 11 11 10 10 10 10 10 10 10 9 9 9 9 9 9 9 8 8 8 8 8 8 8 8 8 8 7 7 7 7
14 13 13 13 13 13 12 12 12 11 11 11 11 11 10 10 10 10 9 9 9 9 9 9 9 9 8 8 8 8 8 8 8 8 8 8 7 7 7 7 7 7 7
14 13 13 13 13 12 12 12 12 11 11 11 10 10 10 10 10 9 9 9 9 9 9 9 8 8 8 8 8 8 8 7 7 7 7 7 7 7 7 7 7 7 7
13 13 13 13 12 12 12 12 12 11 11 10 10 10 10 9 9 9 9 9 9 8 8 8 8 8 8 8 7 7 7 7 7 7 7 7 7 7 7 7 7 7 7
13 12 12 12 12 12 11 11 11 11 10 10 10 10 9 9 9 9 9 9 8 8 8 8 8 8 7 7 7 7 7 7 7 7 7 7 7 7 7 7 7 6 6
12 12 12 12 12 11 11 11 11 10 10 10 10 9 9 9 9 8 8 8 8 8 8 7 7 7 7 7 7 7 7 7 7 7 7 6 6 6 6 6 6 6 6
12 12 12 11 11 11 11 11 10 10 10 10 9 9 9 9 8 8 8 8 8 7 7 7 7 7 7 7 7 7 7 7 6 6 6 6 6 6 6 6 6 6 6
12 12 11 11 11 11 11 10 10 10 10 10 9 9 9 8 8 8 8 7 7 7 7 7 7 7 6 6 6 6 6 6 6 6 6 6 6 6 6 6 6 6 5
12 12 11 11 11 11 10 10 10 10 10 9 9 9 9 8 8 8 7 7 7 7 7 7 6 6 6 6 6 6 6 6 6 6 5 5 5 5 5 5 5 5 5
11 11 11 11 11 10 10 10 10 10 9 9 9 9 8 8 8 7 7 7 7 7 6 6 6 6 6 6 6 6 5 5 5 5 5 5 5 5 5 5 5 5 5
11 11 11 11 11 10 10 10 10 10 9 9 9 8 8 8 8 7 7 7 7 6 6 6 6 6 6 6 5 5 5 5 5 5 5 5 5 5 5 5 5 5 5
11 11 11 11 10 10 10 10 9 9 9 9 8 8 8 8 7 7 7 7 6 6 6 6 6 6 5 5 5 5 5 5 5 5 5 5 4 4 4 4 4 4 4
Wind_Speed
5 5 5 4 4 3 2 2 2 1 1 1 1 1 1 1 0 0 0 0 1 1 1 0 1 1 0 0 0 1 1 2 2 1 0 1 1 1 2 2 2 3 3
4 5 5 4 4 4 3 3 3 2 2 1 1 2 1 1 1 1 1 1 1 1 1 1 2 1 1 1 1 1 1 1 2 0 1 1 1 1 1 2 3 3 3
6 6 5 5 5 5 4 4 4 4 3 3 3 3 2 2 2 1 1 1 1 1 1 1 2 2 2 1 1 1 1 2 2 2 1 1 1 1 2 2 3 3 3
7 7 6 5 5 5 5 4 4 4 4 4 4 3 3 3 3 2 2 2 2 2 2 2 3 3 2 2 2 2 3 3 3 3 1 1 1 1 1 1 2 2 3
8 7 6 6 6 6 5 5 4 4 4 4 5 5 4 4 3 3 3 3 3 3 4 4 5 6 7 5 4 3 4 3 3 3 2 2 2 1 1 0 2 2 3
8 7 7 6 6 6 5 5 5 5 5 5 6 6 6 5 6 6 5 4 4 4 4 4 5 7 8 10 11 9 7 5 3 3 2 2 1 1 1 1 2 2 1
7 7 6 6 6 5 6 6 6 6 6 6 6 6 7 7 8 8 9 6 6 5 5 5 5 6 7 6 9 11 10 10 6 4 4 2 1 1 1 2 2 2 1
7 6 6 6 7 6 7 7 6 5 6 6 6 6 6 7 8 9 10 8 7 6 6 5 6 5 6 6 7 7 7 7 6 5 4 2 2 2 2 2 2 2 2
7 6 6 6 7 7 7 6 5 6 6 6 5 6 6 6 8 8 9 6 7 7 7 7 6 6 7 8 7 7 7 6 9 12 11 11 11 10 7 4 4 4 2
6 6 6 6 7 7 7 6 6 6 7 7 7 7 7 7 8 9 8 5 7 6 6 7 9 8 8 8 6 6 6 4 5 7 8 10 10 11 10 5 3 3 2
6 6 6 6 7 7 6 6 7 7 7 6 7 7 7 7 9 10 9 5 5 5 5 4 5 9 10 9 7 5 4 4 4 5 5 6 6 6 6 6 4 3 3
8 7 7 6 6 7 7 6 6 7 7 6 6 6 6 6 7 8 10 8 6 5 4 3 4 9 10 10 8 8 9 7 5 5 5 4 4 4 4 5 6 5 3
9 8 8 8 7 6 7 7 6 5 5 4 4 4 4 4 5 8 9 9 9 5 4 6 7 9 9 7 9 10 7 5 5 4 4 3 2 2 3 4 5 6 7
10 9 8 8 8 7 6 5 5 4 4 5 4 4 3 3 4 4 4 4 6 6 5 6 8 9 8 7 6 5 4 4 3 3 2 2 2 3 3 2 2 3 3
9 8 8 8 8 8 7 6 5 3 3 5 4 4 4 3 1 3 4 3 3 3 4 4 5 4 5 4 4 4 4 4 4 3 3 3 3 3 3 2 2 2 2
9 8 7 7 6 7 8 7 11 8 8 8 7 6 3 4 5 6 7 7 7 8 6 4 4 3 3 2 2 3 3 3 3 3 3 3 2 2 3 3 2 2 1
10 8 7 6 7 6 6 7 6 6 10 10 8 7 7 6 7 8 8 9 9 8 6 4 3 2 2 2 2 2 2 2 2 2 2 2 2 2 2 2 2 2 2
9 9 8 6 6 6 6 6 6 6 4 3 5 6 7 7 7 8 9 8 6 5 3 3 2 1 1 1 2 2 2 3 3 2 2 2 2 2 2 2 2 1 2
8 6 6 6 6 6 6 5 5 5 4 3 2 3 5 6 7 7 7 5 3 2 2 2 2 2 2 2 2 2 2 2 2 2 2 3 2 2 2 2 2 2 2
6 9 8 6 6 5 5 5 5 5 4 4 3 2 2 4 3 3 3 3 3 2 2 2 2 2 2 2 2 2 3 3 3 3 3 3 3 2 2 2 2 2 2
6 8 10 7 6 6 6 5 5 5 4 4 2 3 6 4 3 2 2 2 2 2 2 2 2 2 2 2 2 2 2 2 2 2 3 3 3 3 3 2 2 2 2
6 6 6 6 6 6 5 5 5 5 5 4 3 3 6 3 3 2 2 1 1 1 3 3 2 2 3 2 2 2 2 2 2 3 3 3 3 3 3 3 3 3 3
6 6 6 5 5 7 6 5 5 5 5 5 5 4 3 3 3 2 2 2 2 2 4 6 4 3 4 4 4 3 1 1 2 2 2 2 3 3 2 3 3 3 3
6 7 6 6 5 6 6 5 5 5 5 5 5 4 4 4 3 3 2 2 3 4 5 6 6 5 5 4 3 2 2 2 2 2 2 1 2 3 3 3 3 4 3
6 6 6 6 6 6 5 5 5 5 5 5 5 4 4 3 3 3 2 3 3 4 5 6 6 6 5 4 2 1 2 4 4 4 3 2 2 3 3 4 4 4 4
5 6 6 5 5 5 5 5 5 5 5 4 4 4 4 4 3 3 2 3 3 4 4 5 6 6 5 3 2 1 2 4 5 5 4 3 2 2 3 3 5 4 4
Wind_Direction
157 153 150 149 148 140 133 129 114 90 73 84 77 68 70 50 286 132 293 57 95 354 355 27 309 296 296 355 100 152 154 159 193 291 329 358 33 26 40 82 99 97 86
144 136 133 130 126 118 109 100 92 80 64 64 57 61 63 55 75 113 135 97 92 47 7 22 339 353 47 48 85 97 118 129 147 189 342 6 13 18 57 65 72 79 88
131 126 117 115 114 110 103 93 83 75 64 53 55 60 48 43 59 95 121 108 100 84 55 49 360 26 40 50 80 90 91 84 97 120 25 5 5 25 47 51 61 53 65
125 120 115 117 112 109 103 94 86 76 67 55 47 44 40 44 48 53 80 86 75 57 52 55 41 42 50 59 75 78 91 84 84 95 75 34 10 345 60 72 57 35 41
118 118 119 117 113 102 97 93 87 78 67 54 51 43 37 48 54 66 83 88 80 65 49 49 58 62 58 63 76 78 87 88 85 85 74 50 28 29 23 33 90 61 38
116 120 120 116 111 106 103 96 87 77 68 62 55 52 49 48 53 68 87 81 76 75 66 55 60 56 57 63 69 73 80 92 97 86 65 60 8 1 28 75 103 78 30
116 119 120 121 116 112 108 95 88 83 75 67 59 60 57 51 61 69 76 81 76 71 69 64 65 58 58 63 66 66 62 63 77 101 86 60 39 352 79 77 84 90 98
116 114 115 118 114 107 101 98 94 87 81 74 63 60 63 53 61 74 79 74 72 66 64 68 74 62 65 73 74 67 59 52 54 67 78 54 53 54 105 122 122 91 51
118 119 121 123 118 114 110 105 99 93 84 74 67 62 63 47 56 73 77 76 71 60 55 58 68 68 65 76 76 71 58 41 52 60 58 54 54 55 64 75 69 79 52
128 126 124 123 123 123 119 111 102 97 89 81 68 58 64 57 57 72 78 82 76 65 53 50 58 69 69 75 80 82 75 50 49 47 43 43 44 46 51 63 85 92 82
125 122 122 120 121 120 114 109 108 102 94 84 76 61 56 54 56 65 72 82 91 83 68 52 49 64 68 67 72 76 85 81 62 57 47 36 34 34 33 41 58 89 92
119 115 113 111 116 116 111 106 106 107 100 88 80 66 47 41 48 59 65 71 85 89 78 57 55 64 63 62 62 65 72 72 63 56 50 35 27 18 13 28 42 49 56
117 108 100 92 87 96 107 110 103 100 105 98 90 82 55 35 36 53 63 66 73 78 77 73 68 67 62 57 57 61 62 62 62 58 46 18 352 354 13 20 22 30 30
118 112 105 98 87 76 79 89 101 103 110 112 107 100 79 53 37 34 49 60 65 70 70 64 62 60 55 47 44 44 45 55 69 62 34 2 6 19 19 18 17 14 23
117 114 109 105 104 92 78 65 84 88 128 132 130 127 120 98 39 79 90 78 82 91 85 64 54 49 46 37 31 30 33 39 44 35 38 28 20 19 6 4 26 34 34
123 119 118 119 113 111 106 82 54 65 80 95 113 121 100 114 114 95 85 86 88 100 91 77 65 62 63 54 43 28 28 30 28 33 35 27 18 11 1 358 16 34 9
131 131 128 129 132 131 126 120 104 61 61 70 86 99 101 104 98 93 91 87 86 92 82 79 72 65 57 48 40 39 22 7 20 34 29 13 3 360 6 1 2 5 348
130 133 133 135 139 140 137 133 130 128 110 63 47 69 82 85 89 90 90 83 67 63 75 82 71 55 49 48 38 29 21 17 18 10 6 0 1 1 0 350 345 341 326
131 136 135 135 136 137 136 130 126 124 121 115 85 51 63 74 75 77 86 84 97 80 67 62 59 57 43 49 54 55 47 28 10 5 360 355 353 2 350 331 328 335 342
136 141 142 140 136 135 135 135 132 129 127 129 131 125 94 85 80 70 72 86 95 96 89 79 61 62 58 56 58 58 50 28 12 9 353 345 342 347 337 328 332 333 319
140 149 145 141 143 144 141 141 144 141 139 141 148 148 139 126 126 120 106 100 107 118 116 108 88 73 68 66 63 52 43 9 353 348 345 344 347 344 334 332 330 330 329
141 142 140 142 143 144 145 147 146 145 147 143 134 130 138 123 125 128 129 135 141 150 142 133 113 101 106 106 94 74 47 17 351 345 345 343 344 341 341 348 345 336 328
138 136 134 135 138 141 141 141 144 148 149 148 144 140 141 147 149 152 159 164 150 130 130 129 124 114 109 105 100 96 89 319 296 309 335 341 341 340 339 332 327 328 322
136 138 136 135 132 134 136 136 140 145 147 149 149 150 155 159 162 166 170 166 146 134 137 139 138 138 131 120 106 87 53 3 346 329 330 322 333 334 335 331 324 318 311
127 132 136 139 137 137 137 138 140 144 146 152 156 157 161 164 168 172 176 165 155 149 149 149 149 148 144 140 130 74 18 12 8 3 352 341 331 330 328 324 322 317 310
126 133 139 141 138 140 144 146 146 147 151 156 159 163 170 172 173 171 173 162 159 158 156 159 165 167 165 168 193 265 351 356 358 359 356 343 328 321 326 321 325 325 316
Height
1539 1540 1541 1541 1542 1543 1543 1543 1544 1544 1544 1544 1544 1543 1542 1542 1542 1542 1542 1542 1542 1542 1542 1542 1541 1541 1541 1541 1540 1541 1541 1541 1541 1541 1541 1541 1541 1540 1539 1539 1538 1537 1536
1538 1539 1539 1540 1540 1541 1541 1542 1542 1542 1542 1542 1542 1541 1540 1540 1540 1540 1540 1540 1540 1540 1540 1540 1540 1539 1539 1538 1538 1538 1539 1539 1539 1539 1539 1539 1538 1538 1537 1536 1536 1535 1534
1537 1537 1538 1539 1539 1540 1540 1540 1541 1541 1541 1541 1540 1540 1539 1539 1539 1539 1539 1539 1538 1538 1539 1538 1538 1538 1537 1537 1537 1537 1537 1537 1537 1537 1537 1537 1536 1536 1535 1535 1534 1533 1532
1536 1537 1537 1537 1538 1539 1539 1540 1540 1540 1540 1540 1540 1539 1539 1538 1538 1538 1538 1538 1537 1537 1537 1537 1537 1536 1536 1536 1535 1535 1535 1535 1535 1535 1535 1535 1535 1534 1534 1533 1532 1532 1531
1536 1536 1536 1537 1538 1538 1539 1539 1540 1540 1540 1539 1539 1538 1538 1537 1537 1536 1536 1536 1536 1536 1536 1536 1536 1536 1535 1535 1535 1534 1534 1534 1534 1534 1534 1534 1533 1532 1532 1532 1531 1530 1530
1535 1536 1536 1537 1538 1538 1539 1539 1540 1540 1540 1539 1539 1538 1537 1537 1537 1536 1536 1536 1536 1536 1536 1536 1536 1536 1536 1535 1534 1534 1534 1534 1533 1533 1533 1532 1532 1532 1531 1531 1530 1529 1529
1535 1536 1536 1537 1538 1538 1539 1539 1539 1540 1540 1540 1539 1538 1538 1537 1537 1537 1536 1536 1536 1536 1536 1536 1536 1536 1536 1536 1534 1534 1534 1534 1534 1534 1533 1532 1532 1531 1531 1530 1530 1529 1528
1535 1536 1536 1537 1538 1538 1539 1539 1540 1540 1540 1540 1540 1539 1539 1539 1538 1538 1537 1537 1536 1537 1537 1537 1537 1537 1537 1537 1536 1535 1534 1534 1533 1533 1533 1532 1532 1531 1531 1530 1530 1529 1529
1535 1535 1536 1537 1538 1539 1539 1540 1540 1541 1541 1541 1541 1541 1540 1540 1540 1539 1539 1538 1538 1537 1538 1538 1538 1538 1538 1538 1537 1536 1535 1535 1535 1534 1534 1533 1532 1532 1531 1530 1529 1529 1528
1534 1535 1536 1537 1538 1539 1540 1540 1541 1542 1542 1542 1542 1542 1542 1541 1541 1541 1541 1540 1539 1539 1539 1539 1539 1539 1539 1539 1538 1537 1536 1536 1536 1535 1534 1534 1533 1532 1531 1531 1530 1529 1528
1533 1534 1535 1537 1538 1539 1540 1542 1542 1543 1543 1543 1543 1543 1543 1543 1542 1542 1542 1541 1541 1540 1540 1541 1541 1541 1540 1540 1539 1538 1538 1538 1537 1536 1535 1535 1534 1533 1532 1531 1531 1530 1529
1532 1533 1534 1537 1538 1540 1541 1542 1543 1544 1544 1544 1544 1544 1544 1544 1544 1543 1543 1543 1543 1542 1542 1542 1542 1542 1541 1541 1540 1540 1540 1539 1538 1538 1536 1536 1535 1534 1534 1533 1532 1531 1530
1533 1533 1535 1537 1539 1540 1541 1542 1543 1544 1545 1545 1545 1545 1545 1545 1545 1545 1544 1544 1544 1543 1544 1544 1544 1543 1543 1542 1542 1542 1541 1540 1540 1539 1538 1537 1537 1536 1535 1534 1533 1532 1531
1533 1534 1536 1538 1539 1541 1542 1543 1544 1545 1545 1545 1546 1546 1546 1546 1546 1546 1546 1546 1546 1545 1545 1545 1545 1545 1545 1544 1544 1543 1543 1542 1541 1540 1540 1539 1538 1537 1536 1535 1534 1533 1531
1534 1535 1537 1539 1540 1541 1543 1544 1545 1545 1546 1547 1547 1547 1547 1547 1547 1547 1547 1547 1547 1547 1547 1547 1546 1546 1546 1546 1545 1545 1544 1543 1543 1542 1541 1540 1539 1538 1537 1535 1534 1533 1532
1533 1535 1537 1539 1541 1542 1543 1544 1545 1546 1547 1547 1548 1548 1548 1548 1548 1548 1548 1548 1548 1548 1548 1548 1547 1547 1547 1547 1546 1546 1545 1544 1544 1543 1542 1541 1540 1538 1537 1536 1535 1534 1532
1533 1535 1537 1539 1541 1542 1543 1544 1545 1547 1548 1548 1548 1549 1549 1549 1549 1549 1549 1550 1550 1550 1549 1549 1549 1548 1548 1548 1547 1547 1546 1545 1545 1543 1542 1541 1540 1539 1538 1536 1535 1534 1532
1534 1536 1538 1540 1541 1543 1544 1545 1546 1547 1548 1548 1549 1550 1550 1550 1551 1551 1551 1551 1550 1550 1550 1550 1550 1549 1549 1548 1548 1547 1546 1545 1545 1544 1542 1541 1540 1539 1538 1536 1535 1534 1532
1534 1536 1538 1540 1541 1543 1544 1546 1547 1548 1548 1549 1550 1550 1551 1551 1552 1552 1552 1551 1551 1551 1551 1551 1550 1550 1549 1549 1548 1547 1546 1545 1544 1543 1542 1541 1540 1538 1537 1536 1535 1533 1532
1535 1536 1538 1540 1542 1543 1545 1546 1547 1548 1549 1549 1550 1551 1551 1551 1552 1552 1552 1552 1552 1552 1552 1551 1551 1550 1550 1549 1548 1547 1546 1545 1544 1543 1541 1540 1539 1538 1536 1535 1534 1532 1531
1535 1537 1539 1540 1542 1543 1545 1546 1547 1548 1549 1550 1550 1551 1552 1552 1552 1552 1552 1552 1552 1552 1552 1552 1551 1551 1550 1549 1548 1547 1546 1544 1543 1542 1540 1539 1538 1537 1535 1534 1533 1531 1530
1535 1537 1539 1540 1542 1543 1545 1546 1548 1548 1549 1550 1550 1551 1552 1552 1552 1552 1553 1553 1553 1552 1552 1552 1551 1550 1549 1548 1547 1546 1545 1544 1542 1540 1539 1537 1536 1535 1534 1533 1531 1530 1528
1536 1537 1539 1540 1542 1543 1545 1547 1548 1548 1549 1550 1551 1551 1552 1552 1552 1552 1553 1553 1552 1552 1552 1551 1551 1550 1549 1548 1547 1545 1544 1543 1541 1539 1538 1536 1535 1534 1533 1531 1530 1528 1527
1536 1537 1539 1541 1542 1544 1545 1546 1547 1548 1549 1550 1550 1551 1552 1552 1552 1552 1552 1552 1552 1551 1551 1551 1550 1549 1548 1547 1546 1545 1543 1542 1540 1539 1537 1535 1534 1533 1531 1530 1528 1526 1525
1536 1537 1539 1541 1542 1544 1545 1546 1547 1548 1549 1550 1550 1551 1552 1552 1552 1552 1552 1552 1551 1551 1550 1550 1549 1549 1548 1546 1545 1544 1542 1541 1540 1538 1536 1534 1533 1531 1530 1528 1526 1525 1523
1536 1538 1539 1541 1542 1544 1545 1546 1547 1548 1549 1549 1550 1551 1551 1551 1551 1551 1551 1551 1550 1550 1549 1549 1548 1547 1546 1545 1544 1542 1541 1540 1538 1536 1535 1533 1531 1529 1528 1526 1524 1523 1521